This is the latest recevied weather packets stored in our database for station/object K1BWE-1. If no packets are shown the sender has not sent any weather packets the latest 10 day(s).
| Time | Temp. | Humidity | Pressure | Rain* | Wind** | Luminosity | Snow |
|---|---|---|---|---|---|---|---|
| 1777555762 | 14.44° C | 32% | 1013.6 hPa | 0 mm | - | 50 W/m² | - |
| 1777555460 | 14.44° C | 34% | 1013.6 hPa | 0 mm | - | 35 W/m² | - |
| 1777555155 | 14.44° C | 33% | 1013.3 hPa | 0 mm | - | 28 W/m² | - |
| 1777554853 | 15° C | 33% | 1013.4 hPa | 0 mm | - | 24 W/m² | - |
| 1777554550 | 14.44° C | 33% | 1013.2 hPa | 0 mm | - | 16 W/m² | - |
| 1777553336 | 15° C | 31% | 1013.4 hPa | 0 mm | - | 3 W/m² | - |
| 1777553033 | 15° C | 31% | 1013.4 hPa | 0 mm | - | 1 W/m² | - |
| 1777552424 | 15° C | 31% | 1013.4 hPa | 0 mm | - | 0 W/m² | - |
| 1777551818 | 15° C | 30% | 1013.3 hPa | 0 mm | - | 0 W/m² | - |
| 1777551516 | 14.44° C | 32% | 1013.2 hPa | 0 mm | - | 0 W/m² | - |
| 1777549389 | 15° C | 31% | 1013.3 hPa | 0 mm | - | 0 W/m² | - |
| 1777547569 | 15° C | 30% | 1013.3 hPa | 0 mm | - | 0 W/m² | - |
| 1777546054 | 15° C | 30% | 1013.9 hPa | 0 mm | - | 0 W/m² | - |
| 1777545750 | 15.56° C | 29% | 1013.9 hPa | 0 mm | - | 0 W/m² | - |
| 1777545447 | 15.56° C | 29% | 1014 hPa | 0 mm | - | 0 W/m² | - |
| 1777545144 | 16.11° C | 29% | 1013.9 hPa | 0 mm | - | 0 W/m² | - |
| 1777544842 | 15.56° C | 28% | 1014.1 hPa | 0 mm | - | 0 W/m² | - |
| 1777544537 | 15.56° C | 28% | 1013.9 hPa | 0 mm | - | 0 W/m² | - |
| 1777544234 | 15.56° C | 27% | 1014 hPa | 0 mm | - | 0 W/m² | - |
| 1777543628 | 15.56° C | 28% | 1014 hPa | 0 mm | - | 0 W/m² | - |
| 1777543019 | 15.56° C | 28% | 1014.1 hPa | 0 mm | - | 0 W/m² | - |
| 1777541806 | 16.11° C | 25% | 1014.1 hPa | 0 mm | - | 0 W/m² | - |
| 1777541503 | 16.67° C | 24% | 1014.5 hPa | 0 mm | - | 0 W/m² | - |
| 1777541200 | 16.67° C | 24% | 1014.3 hPa | 0 mm | - | 0 W/m² | - |
| 1777540895 | 16.67° C | 25% | 1014.3 hPa | 0 mm | - | 0 W/m² | - |
* Rain latest hour (hover to see other rain measurements)
** Current wind speed in m/s (hover to see current wind gust speed)